Regional Weather Roundup
Issued by NWS

Home | Current Version | Previous Version | Text Only | Print | Product List | Glossary Off
Versions: 1 2 3 4 5 6 7 8 9 10 11 12 13 14 15 16 17 18 19 20 21 22 23 24 25 26 27 28 29 30 31 32 33 34 35 36 37 38 39 40 41 42 43 44 45 46 47 48 49 50

000
ASUS43 KFSD 231110
RWRSD

WEATHER ROUNDUP FOR SOUTH DAKOTA
NATIONAL WEATHER SERVICE SIOUX FALLS SD
600 AM CDT THU OCT 23 2014

NOTE: "FAIR" INDICATES FEW OR NO CLOUDS BELOW 12,000 FEET WITH NO
SIGNIFICANT WEATHER AND/OR OBSTRUCTIONS TO VISIBILITY.


SDZ001>005-009-010-012>017-231200-
NORTHWEST AND NORTH CENTRAL SOUTH DAKOTA

CITY           SKY/WX    TMP DP  RH WIND       PRES   REMARKS
BUFFALO          N/A     40  28  62 W10       29.87F
FAITH            N/A     42  30  62 SW13      29.95S
MOBRIDGE       CLEAR     41  35  79 S5        29.94R
$$

SDZ012>016-024>037-041>051-057-063-072>074-231200-
SOUTHWEST AND SOUTH CENTRAL SOUTH DAKOTA

CITY           SKY/WX    TMP DP  RH WIND       PRES   REMARKS
RAPID CTY ARPT CLEAR     34  27  75 CALM      29.98S
PIERRE         CLEAR     37  32  82 CALM      29.96S
CUSTER         CLEAR     35  19  52 NW5       30.04F
ELLSWORTH AFB  CLEAR     41  26  55 W7        29.98R
PHILIP         CLEAR     33  29  85 CALM      29.98S
PINE RIDGE     CLEAR     27  23  85 CALM      30.03S
SPEARFISH      FAIR      43  21  42 W3        30.00R
WINNER         FAIR      50  41  71 SW13      30.00S
$$

SDZ004>011-016>023-039-040-231200-
NORTHEAST SOUTH DAKOTA

CITY           SKY/WX    TMP DP  RH WIND       PRES   REMARKS
ABERDEEN       CLEAR     33  31  92 SE7       29.95S WCI  27
WATERTOWN      FOG       39  39 100 S6        29.97S VSB 3/4
SISSETON         N/A     49  42  77 W12       29.92S
$$

SDZ017-020-022-023-036>040-048>070-231200-
SOUTHEAST SOUTH DAKOTA

CITY           SKY/WX    TMP DP  RH WIND       PRES   REMARKS
SIOUX FALLS    FOG       44  43  96 CALM      30.00F VSB 1/16
HURON          CLEAR     37  36  96 SE5       29.98S
CHAMBERLAIN    CLEAR     35  33  95 CALM      30.00S
MITCHELL       CLEAR     47  43  86 SW7       30.00S
YANKTON        MOCLDY    43  41  93 CALM      30.03S VSB<1/4
$$

ABBREVIATIONS USED IN REMARKS
   TC - TEMPERATURE IN CELSIUS
  WCI - WIND CHILL INDEX
   HX - HEAT INDEX
  VSB - VISIBILITY




USA.gov is the U.S. government's official web portal to all federal, state and local government web resources and services.